User: anonymous
Location: Caltech
(34.1382°N, 118.1253°W)
Time: 01:10:08
(UTC-07:00)
Language:

JAS-2 - Orbit

View from above orbital plane
View from above orbital plane
View from above satellite
View from above satellite

Ground track
Ground track

The orbit data is extracted from the following two-line orbital elements,

1 24278U 96046B   14241.35556958  .00000019  00000-0  51839-4 0  4508
2 24278 098.5144 245.1171 0351594 107.7990 306.8548 13.53027836890567
Epoch (UTC): 29 August 2014 08:32:01
Eccentricity: 0.0351594
inclination: 98.5144°
perigee height: 799 km
apogee height: 1322 km
right ascension of ascending node: 245.1171°
argument of perigee: 107.7990°
revolutions per day: 13.53027836
mean anomaly at epoch: 306.8548°
orbit number at epoch: 89056

The dashed part of the orbit path shows where the satellite is in the earth's shadow,  

DLR